Date String (YYYY-MM-DD hh:mm:ss) UTC,Instrument flags,absolute air pressure of the measurement (hPa),sample flow rate (lpm),inlet stack bypass flow (lpm),air temperature of the measurement (°C),ambient temperature measured by the external sensor (°C),aerosol sample conditioner tube jacket temperature (°C),OPC LED temperature (°C),internal box temperature (°C),relative humidity of the measurement (%),span deviation,mass concentration of particles derived from Lorenz-Mie calculation of OPC scattering (μg/m³),mass concentration of particles derived from Lorenz-Mie calculation of OPC scattering (μg/m³),mass concentration of particles derived from Lorenz-Mie calculation of OPC scattering (μg/m³)
DateTimeUTC,F1_M11,P_M11,Q1_M11,Q2_M11,T1_M11,T2_M11,T3_M11,T4_M11,T5_M11,U1_M11,ZSPAN_M11,X0_M11,X2_M11,X1_M11
2023-06-07 10:00:00,SystemResetWarning,0829.6,5.00,000.00,030.0,028.3,000.0,038.6,031.5,21.9,0000.0,0006.87,0003.78,0003.37
2023-06-07 10:01:00,SystemResetWarning,0829.6,5.00,000.00,030.0,028.3,000.0,038.6,031.5,22.1,0000.0,0006.92,0003.77,0003.33
2023-06-07 10:02:00,SystemResetWarning,0829.6,4.99,000.00,030.0,028.3,000.0,038.6,031.5,22.2,0000.0,0006.85,0003.74,0003.29
2023-06-07 10:03:00,SystemResetWarning,0829.6,5.01,000.00,030.0,028.2,000.0,038.6,031.4,22.5,0000.0,0006.67,0003.71,0003.28
2023-06-07 10:04:00,SystemResetWarning,0829.6,5.01,000.00,030.0,028.2,000.0,038.6,031.4,22.6,0000.0,0006.89,0003.68,0003.28
2023-06-07 10:05:00,SystemResetWarning,0829.6,5.01,000.00,030.0,028.2,000.0,038.6,031.4,22.6,0000.0,0006.89,0003.67,0003.28
2023-06-07 10:06:00,SystemResetWarning,0829.5,5.00,000.00,030.0,028.2,000.0,038.6,031.4,22.4,0000.0,0007.52,0003.69,0003.28
2023-06-07 10:07:00,SystemResetWarning,0829.5,5.00,000.00,030.0,028.2,000.0,038.6,031.4,22.5,0000.0,0007.26,0003.68,0003.28
2023-06-07 10:08:00,SystemResetWarning,0829.5,5.00,000.00,030.0,028.2,000.0,038.6,031.4,22.5,0000.0,0007.09,0003.64,0003.28
2023-06-07 10:09:00,SystemResetWarning,0829.5,5.00,000.00,030.0,028.2,000.0,038.6,031.4,22.5,0000.0,0007.21,0003.64,0003.27
2023-06-07 10:10:00,SystemResetWarning,0829.5,5.00,000.00,030.0,028.2,000.0,038.6,031.4,22.4,0000.0,0007.30,0003.64,0003.28
2023-06-07 10:11:00,SystemResetWarning,0829.5,5.00,000.00,030.0,028.2,000.0,038.6,031.4,21.8,0000.0,0007.34,0003.65,0003.29
2023-06-07 10:12:00,SystemResetWarning,0829.5,5.00,000.00,030.0,028.2,000.0,038.6,031.4,21.4,0000.0,0007.40,0003.65,0003.28
2023-06-07 10:13:00,SystemResetWarning,0829.5,5.00,000.00,030.0,028.2,000.0,038.6,031.4,21.8,0000.0,0007.56,0003.63,0003.27
2023-06-07 10:14:00,SystemResetWarning,0829.5,4.99,000.00,030.0,028.2,000.0,038.6,031.4,21.9,0000.0,0007.79,0003.62,0003.25
2023-06-07 10:15:00,SystemResetWarning,0829.5,5.00,000.00,030.0,028.2,000.0,038.6,031.4,22.0,0000.0,0007.65,0003.60,0003.23
2023-06-07 10:16:00,SystemResetWarning,0829.5,5.00,000.00,030.0,028.2,000.0,038.6,031.4,22.1,0000.0,0007.61,0003.59,0003.22
2023-06-07 10:17:00,SystemResetWarning,0829.4,5.00,000.00,030.0,028.2,000.0,038.6,031.4,22.4,0000.0,0006.96,0003.57,0003.22
2023-06-07 10:18:00,SystemResetWarning,0829.5,5.01,000.00,030.0,028.2,000.0,038.6,031.4,22.7,0000.0,0006.74,0003.57,0003.20
2023-06-07 10:19:00,SystemResetWarning,0829.5,5.00,000.00,030.0,028.2,000.0,038.6,031.4,22.3,0000.0,0006.76,0003.57,0003.19
2023-06-07 10:20:00,SystemResetWarning,0829.5,5.00,000.00,030.0,028.2,000.0,038.6,031.4,21.8,0000.0,0006.65,0003.58,0003.18
2023-06-07 10:21:00,SystemResetWarning,0829.5,5.00,000.00,030.0,028.2,000.0,038.6,031.3,21.7,0000.0,0006.61,0003.59,0003.17
2023-06-07 10:22:00,SystemResetWarning,0829.5,5.01,000.00,030.0,028.2,000.0,038.6,031.3,21.3,0000.0,0006.44,0003.57,0003.16
2023-06-07 10:23:00,SystemResetWarning,0829.5,5.00,000.00,030.0,028.2,000.0,038.6,031.4,21.4,0000.0,0006.64,0003.54,0003.16
2023-06-07 10:24:00,SystemResetWarning,0829.5,5.00,000.00,030.0,028.2,000.0,038.6,031.4,21.0,0000.0,0006.41,0003.54,0003.16
2023-06-07 10:25:00,SystemResetWarning,0829.4,5.00,000.00,030.0,028.2,000.0,038.6,031.4,20.9,0000.0,0006.04,0003.53,0003.16
2023-06-07 10:26:00,SystemResetWarning,0829.5,5.00,000.00,030.0,028.2,000.0,038.6,031.4,20.9,0000.0,0005.85,0003.50,0003.15
2023-06-07 10:27:00,SystemResetWarning,0829.5,5.00,000.00,030.0,028.2,000.0,038.6,031.4,20.9,0000.0,0006.04,0003.50,0003.14
2023-06-07 10:28:00,SystemResetWarning,0829.6,5.00,000.00,030.0,028.2,000.0,038.6,031.4,21.0,0000.0,0006.37,0003.48,0003.13
2023-06-07 10:29:00,SystemResetWarning,0829.6,5.00,000.00,030.0,028.2,000.0,038.6,031.4,21.0,0000.0,0006.45,0003.46,0003.13
2023-06-07 10:30:00,SystemResetWarning,0829.6,5.01,000.00,030.0,028.2,000.0,038.6,031.4,21.1,0000.0,0006.45,0003.45,0003.13
2023-06-07 10:31:00,SystemResetWarning,0829.6,5.01,000.00,030.0,028.2,000.0,038.6,031.4,21.1,0000.0,0006.46,0003.44,0003.12
2023-06-07 10:32:00,SystemResetWarning,0829.6,5.00,000.00,030.0,028.2,000.0,038.6,031.4,21.1,0000.0,0006.41,0003.41,0003.11
2023-06-07 10:33:00,SystemResetWarning,0829.6,5.00,000.00,030.0,028.2,000.0,038.5,031.4,21.0,0000.0,0006.36,0003.39,0003.10
2023-06-07 10:34:00,SystemResetWarning,0829.6,4.99,000.00,030.0,028.2,000.0,038.5,031.4,21.0,0000.0,0006.17,0003.38,0003.09
2023-06-07 10:35:00,SystemResetWarning,0829.5,5.00,000.00,030.0,028.2,000.0,038.5,031.4,20.9,0000.0,0005.89,0003.38,0003.09
2023-06-07 10:36:00,SystemResetWarning,0829.4,5.00,000.00,030.0,028.2,000.0,038.6,031.4,21.0,0000.0,0005.85,0003.39,0003.10
2023-06-07 10:37:00,SystemResetWarning,0829.4,5.00,000.00,030.0,028.2,000.0,038.5,031.4,21.1,0000.0,0005.95,0003.42,0003.12
2023-06-07 10:38:00,SystemResetWarning,0829.4,5.02,000.00,030.0,028.2,000.0,038.5,031.4,21.3,0000.0,0005.88,0003.43,0003.12
2023-06-07 10:39:00,SystemResetWarning,0829.4,5.00,000.00,030.0,028.2,000.0,038.5,031.4,21.3,0000.0,0005.57,0003.44,0003.12
2023-06-07 10:40:00,SystemResetWarning,0829.4,4.99,000.00,030.0,028.2,000.0,038.5,031.4,21.1,0000.0,0005.30,0003.45,0003.12
2023-06-07 10:41:00,SystemResetWarning,0829.4,5.00,000.00,030.0,028.2,000.0,038.5,031.4,21.3,0000.0,0005.34,0003.45,0003.13
2023-06-07 10:42:00,SystemResetWarning,0829.4,5.01,000.00,029.9,028.2,000.0,038.6,031.4,21.3,0000.0,0005.33,0003.47,0003.13
2023-06-07 10:43:00,SystemResetWarning,0829.4,5.01,000.00,029.9,028.2,000.0,038.5,031.4,21.4,0000.0,0005.43,0003.49,0003.14
2023-06-07 10:44:00,SystemResetWarning,0829.5,5.00,000.00,029.9,028.2,000.0,038.5,031.4,21.5,0000.0,0005.46,0003.51,0003.17
2023-06-07 10:45:00,SystemResetWarning,0829.5,5.00,000.00,029.9,028.1,000.0,038.5,031.4,21.3,0000.0,0005.44,0003.53,0003.18
2023-06-07 10:46:00,SystemResetWarning,0829.6,5.00,000.00,029.9,028.1,000.0,038.5,031.4,21.3,0000.0,0005.32,0003.54,0003.18
2023-06-07 10:47:00,SystemResetWarning,0829.5,5.00,000.00,029.9,028.1,000.0,038.5,031.3,21.1,0000.0,0005.33,0003.53,0003.17
2023-06-07 10:48:00,SystemResetWarning,0829.6,5.00,000.00,029.9,028.1,000.0,038.5,031.3,21.0,0000.0,0005.30,0003.53,0003.17
2023-06-07 10:49:00,SystemResetWarning,0829.6,5.00,000.00,029.9,028.1,000.0,038.5,031.3,21.0,0000.0,0005.42,0003.54,0003.16
2023-06-07 10:50:00,SystemResetWarning,0829.5,5.01,000.00,029.9,028.1,000.0,038.5,031.3,21.0,0000.0,0005.49,0003.51,0003.14
2023-06-07 10:51:00,SystemResetWarning,0829.5,5.01,000.00,029.9,028.1,000.0,038.5,031.3,21.2,0000.0,0005.53,0003.50,0003.13
2023-06-07 10:52:00,SystemResetWarning,0829.5,5.00,000.00,029.9,028.1,000.0,038.5,031.3,21.3,0000.0,0005.59,0003.50,0003.13
2023-06-07 10:53:00,SystemResetWarning,0829.5,4.99,000.00,029.9,028.1,000.0,038.5,031.3,21.3,0000.0,0005.70,0003.51,0003.12
2023-06-07 10:54:00,SystemResetWarning,0829.5,4.99,000.00,029.9,028.1,000.0,038.5,031.3,21.1,0000.0,0005.51,0003.47,0003.12
2023-06-07 10:55:00,SystemResetWarning,0829.5,4.99,000.00,029.9,028.1,000.0,038.5,031.3,21.0,0000.0,0005.51,0003.46,0003.10
2023-06-07 10:56:00,SystemResetWarning,0829.4,5.00,000.00,029.9,028.1,000.0,038.5,031.3,21.0,0000.0,0005.52,0003.45,0003.09
2023-06-07 10:57:00,SystemResetWarning,0829.5,5.01,000.00,029.9,028.1,000.0,038.5,031.3,21.0,0000.0,0005.60,0003.45,0003.09
2023-06-07 10:58:00,SystemResetWarning,0829.4,5.01,000.00,029.9,028.1,000.0,038.5,031.3,21.0,0000.0,0005.68,0003.44,0003.08
2023-06-07 10:59:00,SystemResetWarning,0829.4,5.00,000.00,029.9,028.1,000.0,038.5,031.3,21.0,0000.0,0006.00,0003.43,0003.06
